Regional Weather Roundup
Issued by NWS

Home | Current Version | Previous Version | Graphics & Text | Print | Product List | Glossary On
Versions: 1 2 3 4 5 6 7 8 9 10 11 12 13 14 15 16 17 18 19 20 21 22 23 24 25 26 27 28 29 30 31 32 33 34 35 36 37 38 39 40 41 42 43 44 45 46 47 48 49 50
000
ASUS43 KFSD 062110
RWRSD

WEATHER ROUNDUP FOR SOUTH DAKOTA
NATIONAL WEATHER SERVICE SIOUX FALLS SD
300 PM CST TUE DEC 06 2016

NOTE: "FAIR" INDICATES FEW OR NO CLOUDS BELOW 12,000 FEET WITH NO
SIGNIFICANT WEATHER AND/OR OBSTRUCTIONS TO VISIBILITY.


SDZ001>005-009-010-012>017-062200-
NORTHWEST AND NORTH CENTRAL SOUTH DAKOTA

CITY           SKY/WX    TMP DP  RH WIND       PRES   REMARKS
BUFFALO          N/A      8  -2  63 NW30G37   29.90R WCI -15
FAITH            N/A      8   2  76 NW26      29.96R WCI -14
MOBRIDGE       CLOUDY    11   2  67 NW31G41   29.90S WCI -11
$$

SDZ012>016-024>037-041>051-057-063-072>074-062200-
SOUTHWEST AND SOUTH CENTRAL SOUTH DAKOTA

CITY           SKY/WX    TMP DP  RH WIND       PRES   REMARKS
RAPID CTY ARPT SUNNY     19   2  47 N23G32    29.95S WCI   2
PIERRE         CLOUDY    14   5  67 W28       29.98R WCI  -6
CUSTER         SUNNY     16  -7  35 W13       29.79S WCI   2
PHILIP         SUNNY     17   4  56 NW22G35   30.01S WCI   0
PINE RIDGE     SUNNY     19   8  62 W7        29.96F WCI  10
SPEARFISH      FAIR      10   1  67 NW23G31   29.93S WCI -10
WINNER         FAIR      22   6  50 NW26G32   29.99S WCI   5
$$

SDZ004>011-016>023-039-040-062200-
NORTHEAST SOUTH DAKOTA

CITY           SKY/WX    TMP DP  RH WIND       PRES   REMARKS
ABERDEEN       CLOUDY    15   5  64 W29G44    29.84R WCI  -5
WATERTOWN      LGT SNOW  13   8  81 W26G43    29.77R WCI  -7
BROOKINGS      FLURRIES  16   9  74 W28G39    29.81  WCI  -4
SISSETON         N/A     18  11  74 W33G41    29.69R WCI  -2
$$

SDZ017-020-022-023-036>040-048>070-062200-
SOUTHEAST SOUTH DAKOTA

CITY           SKY/WX    TMP DP  RH WIND       PRES   REMARKS
SIOUX FALLS    MOSUNNY   22  11  62 W24G35    29.88R WCI   5
HURON          MIX PCPN  17   7  64 NW30G40   29.92R WCI  -3
CHAMBERLAIN    SUNNY     20   8  60 W28G35    29.99R WCI   1
MITCHELL       PTSUNNY   20   9  62 W30G39    29.96R WCI   1
YANKTON        SUNNY    N/A N/A N/A W30G41    29.94R
$$

ABBREVIATIONS USED IN REMARKS
   TC - TEMPERATURE IN CELSIUS
  WCI - WIND CHILL INDEX
   HX - HEAT INDEX
  VSB - VISIBILITY





USA.gov is the U.S. government's official web portal to all federal, state and local government web resources and services.